Cape Girardeau, MO

10:28 AM CDT on June 25, 2017 (GMT -0500)
Cape Girardeau Regional

Weather History for KCGI - September, 2012

Change the Weather History Date:

Friday, September 28, 2012

  Actual Average Record
Temperature  
Mean Temperature 65 °F 64 °F  
Max Temperature 73 °F 77 °F 92 °F (1999)
Min Temperature 57 °F 51 °F 40 °F (2003)
Degree Days  
Heating Degree Days 0 4  
Month to date heating degree days 40 37  
Since 1 July heating degree days 40 38  
Cooling Degree Days 0 3  
Month to date cooling degree days 148 158  
Year to date cooling degree days 1764 1418  
Growing Degree Days 16 (Base 50)    
Moisture  
Dew Point 63 °F    
Average Humidity 82    
Maximum Humidity 100    
Minimum Humidity 63    
Precipitation  
Precipitation 0.20 in 0.11 in 2.81 in (1974)
Month to date precipitation 6.20 3.07  
Year to date precipitation 21.38 34.12  
Sea Level Pressure  
Sea Level Pressure 30.09 in    
Wind  
Wind Speed 4 mph (NNE)    
Max Wind Speed 13 mph    
Max Gust Speed 16 mph    
Visibility 6 miles    
Events Rain , Thunderstorm    
T = Trace of Precipitation, MM = Missing Value Source: NWS Daily Summary

Daily Weather History Graph

Daily Weather History Graph

Search for Another Location

Airport or City:

Trip Planner

Search our weather history database for the weather conditions in past years. The results will help you decide how hot, cold, wet, or windy it might be!

Date:

Astronomy

Sep. 28, 2012 Rise Set
Actual Time 6:51 AM CDT 6:45 PM CDT
Civil Twilight 6:25 AM CDT 7:11 PM CDT
Nautical Twilight 5:55 AM CDT 7:41 PM CDT
Astronomical Twilight 5:24 AM CDT 8:11 PM CDT
Moon 5:47 PM CDT (9/28) 5:23 AM CDT (9/28)
Length of Visible Light 12h 45m
Length of Day
11h 53m
Waxing Gibbous, 98% of the Moon is Illuminated
Sep 28
Waxing Gibbous
Sep 29
Full
Oct 8
Last Quarter
Oct 15
New
Oct 21
First Quarter

Hourly Weather History & Observations

Time (CDT) Temp. Dew Point Humidity Pressure Visibility Wind Dir Wind Speed Gust Speed Precip Events Conditions
12:53 AM 68.0 °F 66.0 °F 93% 30.09 in 6.0 mi Calm Calm - N/A   Overcast
1:53 AM 68.0 °F 66.0 °F 93% 30.08 in 5.0 mi Calm Calm - N/A   Mostly Cloudy
2:53 AM 66.9 °F 66.0 °F 97% 30.08 in 2.5 mi Calm Calm - 0.00 in   Mostly Cloudy
2:56 AM 66.2 °F 66.2 °F 100% 30.08 in 3.0 mi NNW 3.5 mph - N/A   Mostly Cloudy
3:34 AM 66.2 °F 66.2 °F 100% 30.08 in 4.0 mi Calm Calm - N/A   Overcast
3:46 AM 66.2 °F 66.2 °F 100% 30.08 in 4.0 mi North 3.5 mph - N/A   Overcast
3:53 AM 66.9 °F 66.0 °F 97% 30.07 in 4.0 mi Calm Calm - N/A   Overcast
4:18 AM 66.2 °F 66.2 °F 100% 30.08 in 3.0 mi WNW 4.6 mph - N/A Thunderstorm Overcast
4:34 AM 66.2 °F 66.2 °F 100% 30.08 in 2.5 mi Calm Calm - 0.01 in Rain , Thunderstorm Thunderstorms and Rain
4:48 AM 66.2 °F 66.2 °F 100% 30.08 in 1.8 mi ENE 3.5 mph - 0.13 in Rain , Thunderstorm Heavy Rain
4:53 AM 66.9 °F 66.0 °F 97% 30.08 in 2.0 mi NNE 4.6 mph - 0.15 in Rain , Thunderstorm Heavy Rain
5:06 AM 66.2 °F 66.2 °F 100% 30.08 in 3.0 mi NE 3.5 mph - 0.00 in Rain , Thunderstorm Light Rain
5:13 AM 66.2 °F 66.2 °F 100% 30.08 in 4.0 mi NE 4.6 mph - 0.00 in Rain Light Rain
5:25 AM 66.2 °F 64.4 °F 94% 30.07 in 2.5 mi NE 6.9 mph - 0.05 in Rain Light Rain
5:33 AM 66.2 °F 64.4 °F 94% 30.08 in 4.0 mi NNE 4.6 mph - 0.05 in   Mostly Cloudy
5:53 AM 66.9 °F 64.9 °F 93% 30.08 in 4.0 mi NNE 3.5 mph - 0.05 in   Overcast
6:13 AM 66.2 °F 64.4 °F 94% 30.08 in 4.0 mi NNE 3.5 mph - 0.00 in   Overcast
6:51 AM 66.2 °F 64.4 °F 94% 30.09 in 5.0 mi NNE 3.5 mph - 0.00 in   Overcast
6:53 AM 66.2 °F 64.4 °F 94% 30.09 in 5.0 mi NNE 3.5 mph - N/A   Overcast
6:57 AM 66.2 °F 64.4 °F 94% 30.09 in 5.0 mi Calm Calm - N/A   Overcast
7:32 AM 66.2 °F 64.4 °F 94% 30.11 in 3.0 mi NNW 3.5 mph - N/A   Overcast
7:53 AM 66.9 °F 64.9 °F 93% 30.11 in 4.0 mi Calm Calm - N/A   Overcast
8:10 AM 66.2 °F 64.4 °F 94% 30.11 in 4.0 mi Calm Calm - N/A   Overcast
8:53 AM 66.9 °F 64.9 °F 93% 30.11 in 4.0 mi North 5.8 mph - N/A   Overcast
9:53 AM 66.9 °F 64.9 °F 93% 30.13 in 5.0 mi North 6.9 mph - N/A   Overcast
10:53 AM 66.9 °F 63.0 °F 87% 30.14 in 7.0 mi NNE 8.1 mph - N/A   Overcast
11:15 AM 66.2 °F 62.6 °F 88% 30.14 in 9.0 mi NNE 9.2 mph - N/A   Overcast
11:53 AM 66.9 °F 62.1 °F 84% 30.14 in 10.0 mi North 10.4 mph - 0.00 in Rain Light Rain
12:53 PM 69.1 °F 60.1 °F 73% 30.13 in 10.0 mi North 9.2 mph - 0.00 in   Overcast
1:45 PM 71.6 °F 60.8 °F 69% 30.11 in 10.0 mi North 6.9 mph - N/A   Mostly Cloudy
1:53 PM 71.6 °F 60.8 °F 69% 30.11 in 10.0 mi NNE 5.8 mph - N/A   Mostly Cloudy
2:01 PM 71.6 °F 60.8 °F 69% 30.10 in 10.0 mi North 8.1 mph - N/A   Scattered Clouds
2:53 PM 72.0 °F 61.0 °F 68% 30.09 in 10.0 mi North 5.8 mph - N/A   Mostly Cloudy
3:14 PM 71.6 °F 60.8 °F 69% 30.09 in 10.0 mi North 5.8 mph - N/A   Overcast
3:53 PM 73.0 °F 61.0 °F 66% 30.07 in 10.0 mi NNE 9.2 mph - N/A   Overcast
4:53 PM 70.0 °F 59.0 °F 68% 30.07 in 10.0 mi NNE 10.4 mph - N/A   Overcast
5:53 PM 68.0 °F 55.9 °F 65% 30.07 in 10.0 mi North 6.9 mph - N/A   Overcast
6:07 PM 68.0 °F 57.2 °F 68% 30.07 in 10.0 mi North 4.6 mph - N/A   Overcast
6:53 PM 68.0 °F 57.9 °F 70% 30.06 in 10.0 mi Calm Calm - N/A   Overcast
7:53 PM 64.9 °F 59.0 °F 81% 30.06 in 10.0 mi Calm Calm - N/A   Clear
8:53 PM 63.0 °F 60.1 °F 90% 30.08 in 10.0 mi Calm Calm - N/A   Clear
9:53 PM 61.0 °F 59.0 °F 93% 30.10 in 9.0 mi WNW 3.5 mph - N/A   Partly Cloudy
10:53 PM 60.8 °F 57.2 °F 88% 30.11 in 10.0 mi Calm Calm - N/A   Clear
11:53 PM 60.1 °F 57.0 °F 90% 30.10 in 10.0 mi Calm Calm - N/A   Clear